Time,TemperatureF,DewpointF,PressureIn,WindDirection,WindDirectionDegrees,WindSpeedMPH,WindSpeedGustMPH,Humidity,HourlyPrecipIn,Conditions,Clouds,dailyrainin,SoftwareType,DateUTC
2013-03-16 00:00:00,64.0,51.0,30.24,WNW,292,3.0,3.3,63,0.00,,,0.00,Rainwise IP-100,2013-03-16 04:00:00,
2013-03-16 00:05:00,63.4,51.0,30.25,WNW,292,3.3,4.4,64,0.00,,,0.00,Rainwise IP-100,2013-03-16 04:05:00,
2013-03-16 00:06:00,63.2,51.0,30.24,WNW,292,3.5,4.4,65,0.00,,,0.00,Rainwise IP-100,2013-03-16 04:06:00,
2013-03-16 00:12:00,62.9,51.0,30.24,WNW,292,3.3,4.9,66,0.00,,,0.00,Rainwise IP-100,2013-03-16 04:12:00,
2013-03-16 00:17:00,62.6,52.0,30.25,North,360,0.0,4.2,68,0.00,,,0.00,Rainwise IP-100,2013-03-16 04:17:00,
2013-03-16 00:21:00,62.5,52.0,30.25,NNW,337,4.0,4.0,69,0.00,,,0.00,Rainwise IP-100,2013-03-16 04:21:00,
2013-03-16 00:26:00,62.4,53.0,30.25,NNW,337,1.2,6.1,70,0.00,,,0.00,Rainwise IP-100,2013-03-16 04:26:00,
2013-03-16 00:31:00,62.3,53.0,30.25,NNW,337,1.9,3.3,70,0.00,,,0.00,Rainwise IP-100,2013-03-16 04:31:00,
2013-03-16 00:36:00,62.1,53.0,30.25,NNW,337,2.1,3.0,71,0.00,,,0.00,Rainwise IP-100,2013-03-16 04:36:00,
2013-03-16 00:41:00,61.9,53.0,30.25,NNW,337,2.6,3.5,72,0.00,,,0.00,Rainwise IP-100,2013-03-16 04:41:00,
2013-03-16 00:47:00,61.7,53.0,30.24,NNW,337,1.9,3.7,73,0.00,,,0.00,Rainwise IP-100,2013-03-16 04:47:00,
2013-03-16 00:52:00,61.7,53.0,30.24,NW,315,1.9,4.4,73,0.00,,,0.00,Rainwise IP-100,2013-03-16 04:52:00,
2013-03-16 00:57:00,61.6,53.5,30.24,NNW,337,3.3,4.2,74,0.00,,,0.00,Rainwise IP-100,2013-03-16 04:57:00,
2013-03-16 01:02:00,61.5,53.5,30.25,NNW,337,3.0,4.0,74,0.00,,,0.00,Rainwise IP-100,2013-03-16 05:02:00,
2013-03-16 01:07:00,61.4,53.5,30.25,NW,315,2.6,4.4,75,0.00,,,0.00,Rainwise IP-100,2013-03-16 05:07:00,
2013-03-16 01:12:00,61.2,53.5,30.24,NNW,337,2.3,4.2,75,0.00,,,0.00,Rainwise IP-100,2013-03-16 05:12:00,
2013-03-16 01:17:00,61.0,53.5,30.24,NNW,337,2.8,4.0,76,0.00,,,0.00,Rainwise IP-100,2013-03-16 05:17:00,
2013-03-16 01:22:00,60.9,53.5,30.24,NNW,337,2.6,4.9,76,0.00,,,0.00,Rainwise IP-100,2013-03-16 05:22:00,
2013-03-16 01:28:00,60.8,54.0,30.24,NW,315,2.3,3.3,77,0.00,,,0.00,Rainwise IP-100,2013-03-16 05:28:00,
2013-03-16 01:33:00,60.8,54.0,30.24,NNW,337,2.3,4.0,77,0.00,,,0.00,Rainwise IP-100,2013-03-16 05:33:00,
2013-03-16 01:38:00,60.6,53.5,30.24,NNW,337,2.3,4.2,77,0.00,,,0.00,Rainwise IP-100,2013-03-16 05:38:00,
2013-03-16 01:43:00,60.5,53.5,30.24,NNW,337,2.1,3.3,78,0.00,,,0.00,Rainwise IP-100,2013-03-16 05:43:00,
2013-03-16 01:48:00,60.4,53.5,30.24,NNW,337,1.9,3.5,78,0.00,,,0.00,Rainwise IP-100,2013-03-16 05:48:00,
2013-03-16 01:53:00,60.3,54.0,30.23,NNW,337,1.9,3.0,79,0.00,,,0.00,Rainwise IP-100,2013-03-16 05:53:00,
2013-03-16 01:58:00,60.1,53.5,30.23,NW,315,0.0,2.8,79,0.00,,,0.00,Rainwise IP-100,2013-03-16 05:58:00,
2013-03-16 02:03:00,60.0,53.5,30.23,NW,315,2.1,3.5,79,0.00,,,0.00,Rainwise IP-100,2013-03-16 06:03:00,
2013-03-16 02:09:00,59.9,53.5,30.23,NW,315,1.6,3.0,79,0.00,,,0.00,Rainwise IP-100,2013-03-16 06:09:00,
2013-03-16 02:14:00,59.9,54.0,30.23,WNW,292,2.1,3.0,80,0.00,,,0.00,Rainwise IP-100,2013-03-16 06:14:00,
2013-03-16 02:19:00,59.7,53.5,30.23,WNW,292,0.0,2.3,80,0.00,,,0.00,Rainwise IP-100,2013-03-16 06:19:00,
2013-03-16 02:24:00,59.7,53.5,30.22,NW,315,0.0,2.6,80,0.00,,,0.00,Rainwise IP-100,2013-03-16 06:24:00,
2013-03-16 02:29:00,59.6,53.5,30.23,NW,315,2.1,3.5,81,0.00,,,0.00,Rainwise IP-100,2013-03-16 06:29:00,
2013-03-16 02:34:00,59.5,53.5,30.22,WNW,292,1.4,4.4,81,0.00,,,0.00,Rainwise IP-100,2013-03-16 06:34:00,
2013-03-16 02:39:00,59.4,53.5,30.22,North,360,2.8,3.5,81,0.00,,,0.00,Rainwise IP-100,2013-03-16 06:39:00,
2013-03-16 02:45:00,59.3,53.5,30.22,NW,315,1.9,3.5,81,0.00,,,0.00,Rainwise IP-100,2013-03-16 06:45:00,
2013-03-16 02:50:00,59.3,53.5,30.22,NW,315,0.0,2.3,81,0.00,,,0.00,Rainwise IP-100,2013-03-16 06:50:00,
2013-03-16 02:55:00,59.2,53.5,30.22,NNW,337,1.4,2.6,81,0.00,,,0.00,Rainwise IP-100,2013-03-16 06:55:00,
2013-03-16 03:00:00,59.1,53.5,30.22,NNW,337,0.0,1.9,82,0.00,,,0.00,Rainwise IP-100,2013-03-16 07:00:00,
2013-03-16 03:05:00,59.0,53.5,30.22,NNW,337,1.2,2.1,82,0.00,,,0.00,Rainwise IP-100,2013-03-16 07:05:00,
2013-03-16 03:10:00,59.0,53.5,30.21,NNW,337,0.0,1.9,82,0.00,,,0.00,Rainwise IP-100,2013-03-16 07:10:00,
2013-03-16 03:15:00,59.0,54.0,30.21,NNW,337,1.4,1.9,83,0.00,,,0.00,Rainwise IP-100,2013-03-16 07:15:00,
2013-03-16 03:20:00,59.0,54.0,30.21,WNW,292,0.0,3.3,83,0.00,,,0.00,Rainwise IP-100,2013-03-16 07:20:00,
2013-03-16 03:26:00,58.9,54.0,30.21,WNW,292,0.0,2.1,83,0.00,,,0.00,Rainwise IP-100,2013-03-16 07:26:00,
2013-03-16 03:31:00,58.8,54.0,30.21,NW,315,3.3,4.4,83,0.00,,,0.00,Rainwise IP-100,2013-03-16 07:31:00,
2013-03-16 03:36:00,59.0,54.0,30.21,WNW,292,0.0,3.5,83,0.00,,,0.00,Rainwise IP-100,2013-03-16 07:36:00,
2013-03-16 03:41:00,59.1,53.5,30.21,WNW,292,0.0,0.0,82,0.00,,,0.00,Rainwise IP-100,2013-03-16 07:41:00,
2013-03-16 03:46:00,59.2,53.5,30.22,WNW,292,0.0,1.4,82,0.00,,,0.00,Rainwise IP-100,2013-03-16 07:46:00,
2013-03-16 03:51:00,59.2,53.5,30.21,WNW,292,1.2,1.4,82,0.00,,,0.00,Rainwise IP-100,2013-03-16 07:51:00,
2013-03-16 03:56:00,59.0,53.5,30.22,WNW,292,0.0,1.9,82,0.00,,,0.00,Rainwise IP-100,2013-03-16 07:56:00,
2013-03-16 04:01:00,58.9,53.5,30.21,WNW,292,0.0,0.0,82,0.00,,,0.00,Rainwise IP-100,2013-03-16 08:01:00,
2013-03-16 04:07:00,58.8,54.0,30.21,WNW,292,0.0,1.4,83,0.00,,,0.00,Rainwise IP-100,2013-03-16 08:07:00,
2013-03-16 04:12:00,58.6,54.0,30.21,WNW,292,0.0,1.2,83,0.00,,,0.00,Rainwise IP-100,2013-03-16 08:12:00,
2013-03-16 04:17:00,58.3,53.5,30.21,WNW,292,0.0,0.0,83,0.00,,,0.00,Rainwise IP-100,2013-03-16 08:17:00,
2013-03-16 04:22:00,58.3,53.5,30.22,WNW,292,0.0,0.0,83,0.00,,,0.00,Rainwise IP-100,2013-03-16 08:22:00,
2013-03-16 04:27:00,58.6,54.0,30.21,WNW,292,0.0,1.4,84,0.00,,,0.00,Rainwise IP-100,2013-03-16 08:27:00,
2013-03-16 04:32:00,58.7,54.5,30.21,WNW,292,0.0,1.4,85,0.00,,,0.00,Rainwise IP-100,2013-03-16 08:32:00,
2013-03-16 04:37:00,58.4,54.0,30.21,WNW,292,0.0,0.0,85,0.00,,,0.00,Rainwise IP-100,2013-03-16 08:37:00,
2013-03-16 04:42:00,58.2,54.0,30.21,WNW,292,0.0,0.0,85,0.00,,,0.00,Rainwise IP-100,2013-03-16 08:42:00,
2013-03-16 04:47:00,58.1,54.0,30.21,WNW,292,1.2,1.2,86,0.00,,,0.00,Rainwise IP-100,2013-03-16 08:47:00,
2013-03-16 04:53:00,58.1,54.0,30.21,WNW,292,1.2,1.9,86,0.00,,,0.00,Rainwise IP-100,2013-03-16 08:53:00,
2013-03-16 04:58:00,57.9,54.5,30.21,WNW,292,1.2,1.4,87,0.00,,,0.00,Rainwise IP-100,2013-03-16 08:58:00,
2013-03-16 05:03:00,57.9,54.5,30.21,WNW,292,0.0,1.2,87,0.00,,,0.00,Rainwise IP-100,2013-03-16 09:03:00,
2013-03-16 05:08:00,58.0,54.5,30.21,WNW,292,0.0,1.6,87,0.00,,,0.00,Rainwise IP-100,2013-03-16 09:08:00,
2013-03-16 05:13:00,58.1,54.5,30.21,WNW,292,1.4,1.9,88,0.00,,,0.00,Rainwise IP-100,2013-03-16 09:13:00,
2013-03-16 05:18:00,58.1,54.5,30.21,WNW,292,0.0,1.6,88,0.00,,,0.00,Rainwise IP-100,2013-03-16 09:18:00,
2013-03-16 05:23:00,57.9,54.5,30.21,WNW,292,1.9,1.9,88,0.00,,,0.00,Rainwise IP-100,2013-03-16 09:23:00,
2013-03-16 05:28:00,57.8,54.5,30.21,WNW,292,2.1,2.3,88,0.00,,,0.00,Rainwise IP-100,2013-03-16 09:28:00,
2013-03-16 05:34:00,57.7,54.0,30.21,WNW,292,0.0,2.3,88,0.00,,,0.00,Rainwise IP-100,2013-03-16 09:34:00,
2013-03-16 05:39:00,57.4,54.0,30.21,WNW,292,1.2,1.4,88,0.00,,,0.00,Rainwise IP-100,2013-03-16 09:39:00,
2013-03-16 05:44:00,57.2,53.5,30.21,WNW,292,1.6,2.1,88,0.00,,,0.00,Rainwise IP-100,2013-03-16 09:44:00,
2013-03-16 05:49:00,57.1,53.5,30.21,NNW,337,2.8,3.3,88,0.00,,,0.00,Rainwise IP-100,2013-03-16 09:49:00,
2013-03-16 05:54:00,57.2,53.5,30.21,NNW,337,1.4,3.0,88,0.00,,,0.00,Rainwise IP-100,2013-03-16 09:54:00,
2013-03-16 05:59:00,57.3,54.5,30.21,NNW,337,1.6,2.8,89,0.00,,,0.00,Rainwise IP-100,2013-03-16 09:59:00,
2013-03-16 06:04:00,57.3,54.5,30.21,NNW,337,2.8,3.7,89,0.00,,,0.00,Rainwise IP-100,2013-03-16 10:04:00,
2013-03-16 06:09:00,57.4,54.5,30.21,NNW,337,1.6,4.0,89,0.00,,,0.00,Rainwise IP-100,2013-03-16 10:09:00,
2013-03-16 06:15:00,57.6,54.5,30.21,NNW,337,1.6,2.8,89,0.00,,,0.00,Rainwise IP-100,2013-03-16 10:15:00,
2013-03-16 06:20:00,57.8,54.5,30.21,NNW,337,0.0,2.3,88,0.00,,,0.00,Rainwise IP-100,2013-03-16 10:20:00,
2013-03-16 06:25:00,57.8,54.5,30.21,NNW,337,0.0,1.9,88,0.00,,,0.00,Rainwise IP-100,2013-03-16 10:25:00,
2013-03-16 06:30:00,57.7,54.0,30.22,NNW,337,0.0,0.0,88,0.00,,,0.00,Rainwise IP-100,2013-03-16 10:30:00,
2013-03-16 06:35:00,57.5,54.0,30.22,NNW,337,1.2,1.4,88,0.00,,,0.00,Rainwise IP-100,2013-03-16 10:35:00,
2013-03-16 06:40:00,57.5,54.0,30.22,NNW,337,0.0,1.4,88,0.00,,,0.00,Rainwise IP-100,2013-03-16 10:40:00,
2013-03-16 06:45:00,57.6,54.5,30.22,NNW,337,1.9,1.9,89,0.00,,,0.00,Rainwise IP-100,2013-03-16 10:45:00,
2013-03-16 06:51:00,57.5,54.5,30.23,NNW,337,1.2,2.1,89,0.00,,,0.00,Rainwise IP-100,2013-03-16 10:51:00,
2013-03-16 06:56:00,57.6,54.5,30.23,NNW,337,0.0,1.4,89,0.00,,,0.00,Rainwise IP-100,2013-03-16 10:56:00,
2013-03-16 07:01:00,57.6,54.5,30.23,NNW,337,0.0,1.2,89,0.00,,,0.00,Rainwise IP-100,2013-03-16 11:01:00,
2013-03-16 07:06:00,57.4,54.5,30.23,NNW,337,0.0,1.6,89,0.00,,,0.00,Rainwise IP-100,2013-03-16 11:06:00,
2013-03-16 07:11:00,57.5,54.5,30.23,NNW,337,1.4,1.9,89,0.00,,,0.00,Rainwise IP-100,2013-03-16 11:11:00,
2013-03-16 07:16:00,57.4,54.5,30.23,NNW,337,2.1,2.8,90,0.00,,,0.00,Rainwise IP-100,2013-03-16 11:16:00,
2013-03-16 07:22:00,57.4,54.5,30.23,NNW,337,1.4,2.1,90,0.00,,,0.00,Rainwise IP-100,2013-03-16 11:22:00,
2013-03-16 07:27:00,57.4,54.5,30.23,NNW,337,1.2,1.9,90,0.00,,,0.00,Rainwise IP-100,2013-03-16 11:27:00,
2013-03-16 07:32:00,57.4,54.5,30.23,NNW,337,1.4,1.9,90,0.00,,,0.00,Rainwise IP-100,2013-03-16 11:32:00,
2013-03-16 07:37:00,57.4,54.5,30.23,NNW,337,2.1,2.6,89,0.00,,,0.00,Rainwise IP-100,2013-03-16 11:37:00,
2013-03-16 07:42:00,57.4,54.5,30.23,NNW,337,2.1,2.8,89,0.00,,,0.00,Rainwise IP-100,2013-03-16 11:42:00,
2013-03-16 07:47:00,57.3,54.0,30.24,NNW,337,2.1,3.5,88,0.00,,,0.00,Rainwise IP-100,2013-03-16 11:47:00,
2013-03-16 07:52:00,57.6,54.0,30.24,NNW,337,1.4,2.8,88,0.00,,,0.00,Rainwise IP-100,2013-03-16 11:52:00,
2013-03-16 07:57:00,58.0,54.5,30.24,WNW,292,2.3,2.8,88,0.00,,,0.00,Rainwise IP-100,2013-03-16 11:57:00,
2013-03-16 08:03:00,57.9,54.5,30.24,WNW,292,2.3,3.5,87,0.00,,,0.00,Rainwise IP-100,2013-03-16 12:03:00,
2013-03-16 08:08:00,57.9,54.0,30.24,WNW,292,0.0,3.0,86,0.00,,,0.00,Rainwise IP-100,2013-03-16 12:08:00,
2013-03-16 08:13:00,58.1,54.0,30.24,WNW,292,1.6,1.6,86,0.00,,,0.00,Rainwise IP-100,2013-03-16 12:13:00,
2013-03-16 08:18:00,58.3,54.0,30.25,WNW,292,1.6,2.8,86,0.00,,,0.00,Rainwise IP-100,2013-03-16 12:18:00,
2013-03-16 08:23:00,58.7,54.5,30.25,WNW,292,1.9,3.5,86,0.00,,,0.00,Rainwise IP-100,2013-03-16 12:23:00,
2013-03-16 08:28:00,59.4,55.0,30.25,NW,315,2.1,2.3,86,0.00,,,0.00,Rainwise IP-100,2013-03-16 12:28:00,
2013-03-16 08:33:00,60.0,55.0,30.25,NNW,337,2.3,4.0,85,0.00,,,0.00,Rainwise IP-100,2013-03-16 12:33:00,
2013-03-16 08:38:00,60.6,55.0,30.25,NNW,337,2.3,3.3,83,0.00,,,0.00,Rainwise IP-100,2013-03-16 12:38:00,
2013-03-16 08:44:00,61.2,54.5,30.25,NNW,337,2.6,4.2,80,0.00,,,0.00,Rainwise IP-100,2013-03-16 12:44:00,
2013-03-16 08:49:00,62.0,55.0,30.25,NNW,337,2.6,4.2,78,0.00,,,0.00,Rainwise IP-100,2013-03-16 12:49:00,
2013-03-16 08:54:00,62.7,54.5,30.25,NNW,337,3.7,4.4,75,0.00,,,0.00,Rainwise IP-100,2013-03-16 12:54:00,
2013-03-16 08:59:00,63.3,54.5,30.25,NNW,337,2.3,4.4,73,0.00,,,0.00,Rainwise IP-100,2013-03-16 12:59:00,
2013-03-16 09:04:00,64.0,54.5,30.25,NNW,337,3.0,3.0,72,0.00,,,0.00,Rainwise IP-100,2013-03-16 13:04:00,
2013-03-16 09:09:00,64.6,54.5,30.25,NNW,337,2.6,5.1,70,0.00,,,0.00,Rainwise IP-100,2013-03-16 13:09:00,
2013-03-16 09:14:00,64.9,54.0,30.25,NW,315,2.8,4.0,68,0.00,,,0.00,Rainwise IP-100,2013-03-16 13:14:00,
2013-03-16 09:19:00,65.6,54.0,30.25,NNW,337,1.9,4.0,67,0.00,,,0.00,Rainwise IP-100,2013-03-16 13:19:00,
2013-03-16 09:25:00,66.4,54.5,30.25,NNW,337,3.3,4.0,66,0.00,,,0.00,Rainwise IP-100,2013-03-16 13:25:00,
2013-03-16 09:30:00,67.0,54.5,30.25,North,360,4.7,5.6,64,0.00,,,0.00,Rainwise IP-100,2013-03-16 13:30:00,
2013-03-16 09:35:00,67.5,53.5,30.25,NW,315,2.6,5.1,61,0.00,,,0.00,Rainwise IP-100,2013-03-16 13:35:00,
2013-03-16 09:40:00,68.2,53.0,30.24,NNE,22,1.4,4.7,58,0.00,,,0.00,Rainwise IP-100,2013-03-16 13:40:00,
2013-03-16 09:45:00,69.3,53.0,30.25,NNW,337,2.6,4.9,56,0.00,,,0.00,Rainwise IP-100,2013-03-16 13:45:00,
2013-03-16 09:50:00,70.2,53.0,30.25,North,360,4.2,6.5,54,0.00,,,0.00,Rainwise IP-100,2013-03-16 13:50:00,
2013-03-16 09:55:00,70.7,52.0,30.25,NNW,337,3.5,6.5,52,0.00,,,0.00,Rainwise IP-100,2013-03-16 13:55:00,
2013-03-16 10:00:00,71.1,52.0,30.25,NNE,22,5.8,7.0,51,0.00,,,0.00,Rainwise IP-100,2013-03-16 14:00:00,
2013-03-16 10:06:00,70.8,52.0,30.25,ENE,67,4.0,6.8,51,0.00,,,0.00,Rainwise IP-100,2013-03-16 14:06:00,
2013-03-16 10:11:00,70.4,51.0,30.25,ENE,67,4.7,7.0,51,0.00,,,0.00,Rainwise IP-100,2013-03-16 14:11:00,
2013-03-16 10:16:00,70.5,51.0,30.25,ENE,67,2.8,6.3,51,0.00,,,0.00,Rainwise IP-100,2013-03-16 14:16:00,
2013-03-16 10:21:00,70.4,52.0,30.25,ENE,67,5.1,9.3,52,0.00,,,0.00,Rainwise IP-100,2013-03-16 14:21:00,
2013-03-16 10:26:00,70.6,52.0,30.25,NNE,22,4.4,7.2,52,0.00,,,0.00,Rainwise IP-100,2013-03-16 14:26:00,
2013-03-16 10:31:00,71.1,52.0,30.25,NE,45,5.6,8.6,51,0.00,,,0.00,Rainwise IP-100,2013-03-16 14:31:00,
2013-03-16 10:37:00,71.1,51.0,30.25,ENE,67,6.8,7.9,50,0.00,,,0.00,Rainwise IP-100,2013-03-16 14:37:00,
2013-03-16 10:42:00,70.6,51.0,30.25,East,90,4.4,7.7,51,0.00,,,0.00,Rainwise IP-100,2013-03-16 14:42:00,
2013-03-16 10:47:00,70.4,51.0,30.25,NE,45,5.1,8.2,51,0.00,,,0.00,Rainwise IP-100,2013-03-16 14:47:00,
2013-03-16 10:52:00,70.8,52.0,30.25,ENE,67,2.8,6.3,51,0.00,,,0.00,Rainwise IP-100,2013-03-16 14:52:00,
2013-03-16 10:57:00,71.5,52.0,30.25,East,90,5.6,5.8,50,0.00,,,0.00,Rainwise IP-100,2013-03-16 14:57:00,
2013-03-16 11:02:00,71.4,52.0,30.24,NNE,22,5.6,7.2,50,0.00,,,0.00,Rainwise IP-100,2013-03-16 15:02:00,
2013-03-16 11:07:00,72.0,52.0,30.25,ESE,112,3.0,7.2,49,0.00,,,0.00,Rainwise IP-100,2013-03-16 15:07:00,
2013-03-16 11:12:00,72.7,53.0,30.24,East,90,3.7,8.2,49,0.00,,,0.00,Rainwise IP-100,2013-03-16 15:12:00,
2013-03-16 11:18:00,72.4,51.0,30.24,SE,135,1.2,7.0,48,0.00,,,0.00,Rainwise IP-100,2013-03-16 15:18:00,
2013-03-16 11:23:00,72.4,51.0,30.24,ENE,67,3.3,7.9,48,0.00,,,0.00,Rainwise IP-100,2013-03-16 15:23:00,
2013-03-16 11:28:00,71.9,52.0,30.24,ENE,67,4.2,8.9,49,0.00,,,0.00,Rainwise IP-100,2013-03-16 15:28:00,
2013-03-16 11:33:00,71.3,51.0,30.24,ESE,112,4.0,9.1,49,0.00,,,0.00,Rainwise IP-100,2013-03-16 15:33:00,
2013-03-16 11:38:00,70.9,51.0,30.24,ENE,67,2.1,8.6,50,0.00,,,0.00,Rainwise IP-100,2013-03-16 15:38:00,
2013-03-16 11:43:00,71.8,52.0,30.25,SE,135,2.6,7.0,50,0.00,,,0.00,Rainwise IP-100,2013-03-16 15:43:00,
2013-03-16 11:48:00,72.7,53.5,30.24,SSE,157,4.0,9.3,51,0.00,,,0.00,Rainwise IP-100,2013-03-16 15:48:00,
2013-03-16 11:53:00,72.3,53.5,30.24,SSE,157,6.5,7.5,51,0.00,,,0.00,Rainwise IP-100,2013-03-16 15:53:00,
2013-03-16 11:58:00,72.0,53.0,30.24,ESE,112,3.5,10.0,51,0.00,,,0.00,Rainwise IP-100,2013-03-16 15:58:00,
2013-03-16 12:04:00,71.5,53.0,30.24,SSE,157,1.6,8.2,51,0.00,,,0.00,Rainwise IP-100,2013-03-16 16:04:00,
2013-03-16 12:09:00,71.9,53.0,30.24,ESE,112,2.1,6.8,51,0.00,,,0.00,Rainwise IP-100,2013-03-16 16:09:00,
2013-03-16 12:14:00,72.4,53.5,30.24,East,90,5.8,7.7,51,0.00,,,0.00,Rainwise IP-100,2013-03-16 16:14:00,
2013-03-16 12:19:00,72.5,53.5,30.23,SE,135,5.8,7.2,51,0.00,,,0.00,Rainwise IP-100,2013-03-16 16:19:00,
2013-03-16 12:24:00,72.6,53.5,30.24,ESE,112,5.4,8.9,51,0.00,,,0.00,Rainwise IP-100,2013-03-16 16:24:00,
2013-03-16 12:29:00,72.5,54.0,30.24,ESE,112,7.2,9.6,52,0.00,,,0.00,Rainwise IP-100,2013-03-16 16:29:00,
2013-03-16 12:34:00,72.6,54.0,30.23,ENE,67,2.6,10.3,52,0.00,,,0.00,Rainwise IP-100,2013-03-16 16:34:00,
2013-03-16 12:39:00,72.7,54.0,30.24,SSE,157,2.6,7.7,52,0.00,,,0.00,Rainwise IP-100,2013-03-16 16:39:00,
2013-03-16 12:45:00,72.6,54.0,30.23,SE,135,2.3,9.8,52,0.00,,,0.00,Rainwise IP-100,2013-03-16 16:45:00,
2013-03-16 12:50:00,72.5,54.0,30.23,ESE,112,1.6,9.8,52,0.00,,,0.00,Rainwise IP-100,2013-03-16 16:50:00,
2013-03-16 12:55:00,72.5,54.5,30.23,ESE,112,7.0,10.7,53,0.00,,,0.00,Rainwise IP-100,2013-03-16 16:55:00,
2013-03-16 13:00:00,71.9,54.0,30.22,SE,135,2.6,9.6,53,0.00,,,0.00,Rainwise IP-100,2013-03-16 17:00:00,
2013-03-16 13:05:00,71.9,54.0,30.22,SE,135,1.9,9.6,53,0.00,,,0.00,Rainwise IP-100,2013-03-16 17:05:00,
2013-03-16 13:10:00,72.5,54.5,30.22,SSE,157,2.1,8.2,53,0.00,,,0.00,Rainwise IP-100,2013-03-16 17:10:00,
2013-03-16 13:15:00,71.7,53.5,30.22,ESE,112,4.9,8.6,53,0.00,,,0.00,Rainwise IP-100,2013-03-16 17:15:00,
2013-03-16 13:20:00,71.3,54.0,30.22,SSE,157,10.5,10.5,54,0.00,,,0.00,Rainwise IP-100,2013-03-16 17:20:00,
2013-03-16 13:25:00,71.3,54.0,30.22,SSE,157,7.5,11.4,55,0.00,,,0.00,Rainwise IP-100,2013-03-16 17:25:00,
2013-03-16 13:31:00,71.7,55.0,30.22,SE,135,10.5,11.0,56,0.00,,,0.00,Rainwise IP-100,2013-03-16 17:31:00,
2013-03-16 13:36:00,71.7,54.5,30.22,ESE,112,5.8,12.8,55,0.00,,,0.00,Rainwise IP-100,2013-03-16 17:36:00,
2013-03-16 13:41:00,71.3,54.0,30.21,SSW,202,5.4,10.5,54,0.00,,,0.00,Rainwise IP-100,2013-03-16 17:41:00,
2013-03-16 13:46:00,71.1,53.5,30.21,SSE,157,5.4,14.5,54,0.00,,,0.00,Rainwise IP-100,2013-03-16 17:46:00,
2013-03-16 13:51:00,70.8,54.0,30.21,East,90,4.4,11.7,55,0.00,,,0.00,Rainwise IP-100,2013-03-16 17:51:00,
2013-03-16 13:56:00,71.2,54.0,30.21,SSE,157,4.7,12.8,55,0.00,,,0.00,Rainwise IP-100,2013-03-16 17:56:00,
2013-03-16 14:01:00,71.9,54.5,30.21,SSE,157,5.6,11.2,54,0.00,,,0.00,Rainwise IP-100,2013-03-16 18:01:00,
2013-03-16 14:07:00,72.1,54.5,30.20,ESE,112,5.8,12.4,54,0.00,,,0.00,Rainwise IP-100,2013-03-16 18:07:00,
2013-03-16 14:12:00,72.1,54.5,30.20,South,180,2.3,9.1,54,0.00,,,0.00,Rainwise IP-100,2013-03-16 18:12:00,
2013-03-16 14:17:00,72.4,54.0,30.20,SE,135,0.0,10.3,53,0.00,,,0.00,Rainwise IP-100,2013-03-16 18:17:00,
2013-03-16 14:22:00,72.3,54.0,30.20,SE,135,3.7,11.4,52,0.00,,,0.00,Rainwise IP-100,2013-03-16 18:22:00,
2013-03-16 14:27:00,71.9,54.0,30.20,SSE,157,0.0,12.4,53,0.00,,,0.00,Rainwise IP-100,2013-03-16 18:27:00,
2013-03-16 14:33:00,72.1,54.0,30.19,SSE,157,2.8,11.4,53,0.00,,,0.00,Rainwise IP-100,2013-03-16 18:33:00,
2013-03-16 14:38:00,71.9,53.5,30.19,SE,135,9.1,12.6,52,0.00,,,0.00,Rainwise IP-100,2013-03-16 18:38:00,
2013-03-16 14:43:00,71.2,53.5,30.19,SSE,157,4.9,12.6,53,0.00,,,0.00,Rainwise IP-100,2013-03-16 18:43:00,
2013-03-16 14:48:00,71.5,53.5,30.18,SSE,157,3.0,11.2,53,0.00,,,0.00,Rainwise IP-100,2013-03-16 18:48:00,
2013-03-16 14:53:00,72.0,54.0,30.19,SSE,157,4.4,11.2,53,0.00,,,0.00,Rainwise IP-100,2013-03-16 18:53:00,
2013-03-16 14:58:00,71.9,54.0,30.19,SE,135,0.0,15.2,53,0.00,,,0.00,Rainwise IP-100,2013-03-16 18:58:00,
2013-03-16 15:03:00,71.9,53.5,30.18,SSE,157,6.1,13.3,52,0.00,,,0.00,Rainwise IP-100,2013-03-16 19:03:00,
2013-03-16 15:08:00,71.9,53.5,30.18,ESE,112,4.0,11.2,52,0.00,,,0.00,Rainwise IP-100,2013-03-16 19:08:00,
2013-03-16 15:14:00,72.0,53.5,30.18,ESE,112,7.2,13.5,52,0.00,,,0.00,Rainwise IP-100,2013-03-16 19:14:00,
2013-03-16 15:19:00,72.0,53.0,30.18,SSE,157,3.7,12.4,51,0.00,,,0.00,Rainwise IP-100,2013-03-16 19:19:00,
2013-03-16 15:24:00,71.6,53.5,30.18,SSE,157,3.3,12.4,52,0.00,,,0.00,Rainwise IP-100,2013-03-16 19:24:00,
2013-03-16 15:29:00,71.3,53.0,30.17,ESE,112,9.8,11.2,52,0.00,,,0.00,Rainwise IP-100,2013-03-16 19:29:00,
2013-03-16 15:34:00,71.3,53.0,30.17,ESE,112,2.3,10.5,52,0.00,,,0.00,Rainwise IP-100,2013-03-16 19:34:00,
2013-03-16 15:39:00,71.5,53.5,30.17,SE,135,5.1,10.0,52,0.00,,,0.00,Rainwise IP-100,2013-03-16 19:39:00,
2013-03-16 15:44:00,71.8,53.0,30.16,ESE,112,6.3,10.0,51,0.00,,,0.00,Rainwise IP-100,2013-03-16 19:44:00,
2013-03-16 15:50:00,72.0,53.5,30.17,SSE,157,3.3,10.5,52,0.00,,,0.00,Rainwise IP-100,2013-03-16 19:50:00,
2013-03-16 15:55:00,71.9,53.5,30.16,SE,135,4.7,12.4,52,0.00,,,0.00,Rainwise IP-100,2013-03-16 19:55:00,
2013-03-16 16:00:00,71.7,53.5,30.16,SSE,157,5.4,9.1,52,0.00,,,0.00,Rainwise IP-100,2013-03-16 20:00:00,
2013-03-16 16:05:00,71.7,53.0,30.17,ESE,112,7.2,10.5,51,0.00,,,0.00,Rainwise IP-100,2013-03-16 20:05:00,
2013-03-16 16:10:00,71.7,52.0,30.16,ESE,112,3.5,10.3,50,0.00,,,0.00,Rainwise IP-100,2013-03-16 20:10:00,
2013-03-16 16:15:00,71.5,52.0,30.16,ESE,112,1.6,10.3,50,0.00,,,0.00,Rainwise IP-100,2013-03-16 20:15:00,
2013-03-16 16:20:00,71.7,53.0,30.16,SSE,157,3.0,8.6,51,0.00,,,0.00,Rainwise IP-100,2013-03-16 20:20:00,
2013-03-16 16:26:00,71.8,53.0,30.16,SSW,202,1.4,9.6,51,0.00,,,0.00,Rainwise IP-100,2013-03-16 20:26:00,
2013-03-16 16:31:00,72.2,53.0,30.16,SSE,157,5.8,8.4,50,0.00,,,0.00,Rainwise IP-100,2013-03-16 20:31:00,
2013-03-16 16:36:00,72.3,53.0,30.16,SE,135,11.0,11.2,50,0.00,,,0.00,Rainwise IP-100,2013-03-16 20:36:00,
2013-03-16 16:41:00,72.2,53.5,30.16,SSE,157,5.4,11.2,51,0.00,,,0.00,Rainwise IP-100,2013-03-16 20:41:00,
2013-03-16 16:46:00,72.1,53.0,30.15,East,90,5.6,11.2,51,0.00,,,0.00,Rainwise IP-100,2013-03-16 20:46:00,
2013-03-16 16:51:00,71.5,53.0,30.16,ESE,112,10.3,12.4,51,0.00,,,0.00,Rainwise IP-100,2013-03-16 20:51:00,
2013-03-16 16:56:00,71.1,53.0,30.15,South,180,3.5,12.1,52,0.00,,,0.00,Rainwise IP-100,2013-03-16 20:56:00,
2013-03-16 17:02:00,71.1,52.0,30.16,ESE,112,3.3,9.3,51,0.00,,,0.00,Rainwise IP-100,2013-03-16 21:02:00,
2013-03-16 17:07:00,71.3,52.0,30.16,ENE,67,3.7,10.5,51,0.00,,,0.00,Rainwise IP-100,2013-03-16 21:07:00,
2013-03-16 17:12:00,71.4,52.0,30.16,SSE,157,3.7,9.3,51,0.00,,,0.00,Rainwise IP-100,2013-03-16 21:12:00,
2013-03-16 17:17:00,71.7,53.0,30.16,SSE,157,4.2,10.0,51,0.00,,,0.00,Rainwise IP-100,2013-03-16 21:17:00,
2013-03-16 17:22:00,71.6,53.0,30.16,ESE,112,4.9,12.1,51,0.00,,,0.00,Rainwise IP-100,2013-03-16 21:22:00,
2013-03-16 17:27:00,71.4,53.0,30.15,ESE,112,9.8,11.2,52,0.00,,,0.00,Rainwise IP-100,2013-03-16 21:27:00,
2013-03-16 17:32:00,70.9,53.0,30.16,SSE,157,4.0,9.8,52,0.00,,,0.00,Rainwise IP-100,2013-03-16 21:32:00,
2013-03-16 17:37:00,70.7,52.0,30.16,SE,135,5.4,10.5,52,0.00,,,0.00,Rainwise IP-100,2013-03-16 21:37:00,
2013-03-16 17:43:00,70.7,52.0,30.15,SE,135,4.7,10.7,52,0.00,,,0.00,Rainwise IP-100,2013-03-16 21:43:00,
2013-03-16 17:48:00,70.6,52.0,30.16,ESE,112,4.7,10.5,52,0.00,,,0.00,Rainwise IP-100,2013-03-16 21:48:00,
2013-03-16 17:53:00,70.7,53.0,30.16,SE,135,4.0,11.7,53,0.00,,,0.00,Rainwise IP-100,2013-03-16 21:53:00,
2013-03-16 17:58:00,70.9,53.0,30.16,SSE,157,3.0,11.9,53,0.00,,,0.00,Rainwise IP-100,2013-03-16 21:58:00,
2013-03-16 18:03:00,70.9,53.0,30.17,SSW,202,5.4,10.5,52,0.00,,,0.00,Rainwise IP-100,2013-03-16 22:03:00,
2013-03-16 18:08:00,70.7,51.0,30.16,ESE,112,4.0,10.7,51,0.00,,,0.00,Rainwise IP-100,2013-03-16 22:08:00,
2013-03-16 18:13:00,70.7,51.0,30.16,SSE,157,8.4,8.6,51,0.00,,,0.00,Rainwise IP-100,2013-03-16 22:13:00,
2013-03-16 18:18:00,70.6,51.0,30.17,SSE,157,4.2,8.9,51,0.00,,,0.00,Rainwise IP-100,2013-03-16 22:18:00,
2013-03-16 18:24:00,70.6,51.0,30.16,SSE,157,6.5,11.2,51,0.00,,,0.00,Rainwise IP-100,2013-03-16 22:24:00,
2013-03-16 18:29:00,70.5,51.0,30.16,SSW,202,3.0,9.3,51,0.00,,,0.00,Rainwise IP-100,2013-03-16 22:29:00,
2013-03-16 18:34:00,70.4,51.0,30.16,ESE,112,5.6,10.5,51,0.00,,,0.00,Rainwise IP-100,2013-03-16 22:34:00,
2013-03-16 18:39:00,70.3,51.0,30.16,ESE,112,6.3,13.5,51,0.00,,,0.00,Rainwise IP-100,2013-03-16 22:39:00,
2013-03-16 18:44:00,70.1,52.0,30.16,SSE,157,3.7,10.3,53,0.00,,,0.00,Rainwise IP-100,2013-03-16 22:44:00,
2013-03-16 18:49:00,69.9,53.0,30.16,SSE,157,3.0,10.7,54,0.00,,,0.00,Rainwise IP-100,2013-03-16 22:49:00,
2013-03-16 18:54:00,69.8,53.0,30.16,ESE,112,1.2,10.7,55,0.00,,,0.00,Rainwise IP-100,2013-03-16 22:54:00,
2013-03-16 18:59:00,69.7,53.0,30.16,South,180,5.6,11.4,55,0.00,,,0.00,Rainwise IP-100,2013-03-16 22:59:00,
2013-03-16 19:04:00,69.6,53.0,30.17,SSE,157,4.9,10.3,55,0.00,,,0.00,Rainwise IP-100,2013-03-16 23:04:00,
2013-03-16 19:10:00,69.4,53.0,30.17,SE,135,6.3,10.3,56,0.00,,,0.00,Rainwise IP-100,2013-03-16 23:10:00,
2013-03-16 19:15:00,69.2,53.5,30.16,South,180,4.4,11.2,57,0.00,,,0.00,Rainwise IP-100,2013-03-16 23:15:00,
2013-03-16 19:20:00,69.0,53.5,30.17,ESE,112,6.3,9.1,58,0.00,,,0.00,Rainwise IP-100,2013-03-16 23:20:00,
2013-03-16 19:25:00,68.8,53.5,30.17,SSE,157,7.7,10.0,58,0.00,,,0.00,Rainwise IP-100,2013-03-16 23:25:00,
2013-03-16 19:30:00,68.7,53.5,30.16,South,180,2.8,8.6,58,0.00,,,0.00,Rainwise IP-100,2013-03-16 23:30:00,
2013-03-16 19:35:00,68.6,53.5,30.16,SE,135,4.9,9.1,59,0.00,,,0.00,Rainwise IP-100,2013-03-16 23:35:00,
2013-03-16 19:40:00,68.4,54.0,30.17,SE,135,4.4,11.2,60,0.00,,,0.00,Rainwise IP-100,2013-03-16 23:40:00,
2013-03-16 19:45:00,68.4,54.0,30.17,SSE,157,7.0,10.7,60,0.00,,,0.00,Rainwise IP-100,2013-03-16 23:45:00,
2013-03-16 19:51:00,68.3,53.5,30.17,SSE,157,3.7,11.7,59,0.00,,,0.00,Rainwise IP-100,2013-03-16 23:51:00,
2013-03-16 19:56:00,68.3,54.0,30.17,SSE,157,4.9,11.2,60,0.00,,,0.00,Rainwise IP-100,2013-03-16 23:56:00,
2013-03-16 20:01:00,68.3,54.0,30.16,SSE,157,9.6,13.3,60,0.00,,,0.00,Rainwise IP-100,2013-03-17 00:01:00,
2013-03-16 20:06:00,68.3,54.0,30.17,SSE,157,5.4,11.9,60,0.00,,,0.00,Rainwise IP-100,2013-03-17 00:06:00,
2013-03-16 20:11:00,68.2,54.0,30.17,SSE,157,2.6,11.4,61,0.00,,,0.00,Rainwise IP-100,2013-03-17 00:11:00,
2013-03-16 20:16:00,68.1,54.0,30.16,SSE,157,2.1,11.7,61,0.00,,,0.00,Rainwise IP-100,2013-03-17 00:16:00,
2013-03-16 20:21:00,68.1,54.0,30.17,South,180,6.3,11.9,61,0.00,,,0.00,Rainwise IP-100,2013-03-17 00:21:00,
2013-03-16 20:27:00,68.0,54.0,30.17,SSW,202,5.6,10.7,61,0.00,,,0.00,Rainwise IP-100,2013-03-17 00:27:00,
2013-03-16 20:32:00,68.0,54.0,30.17,SSE,157,3.7,9.8,61,0.00,,,0.00,Rainwise IP-100,2013-03-17 00:32:00,
2013-03-16 20:37:00,68.0,54.0,30.17,SSE,157,7.9,8.2,61,0.00,,,0.00,Rainwise IP-100,2013-03-17 00:37:00,
2013-03-16 20:42:00,68.0,53.5,30.18,ESE,112,4.4,9.3,60,0.00,,,0.00,Rainwise IP-100,2013-03-17 00:42:00,
2013-03-16 20:47:00,68.0,53.5,30.18,SE,135,2.8,12.1,60,0.00,,,0.00,Rainwise IP-100,2013-03-17 00:47:00,
2013-03-16 20:52:00,68.0,54.0,30.18,SSW,202,5.1,13.5,61,0.00,,,0.00,Rainwise IP-100,2013-03-17 00:52:00,
2013-03-16 20:58:00,68.0,54.0,30.18,SSW,202,7.7,10.0,61,0.00,,,0.00,Rainwise IP-100,2013-03-17 00:58:00,
2013-03-16 21:03:00,68.0,54.5,30.18,SSW,202,2.8,10.5,62,0.00,,,0.00,Rainwise IP-100,2013-03-17 01:03:00,
2013-03-16 21:08:00,68.0,54.0,30.18,SSE,157,5.4,12.6,61,0.00,,,0.00,Rainwise IP-100,2013-03-17 01:08:00,
2013-03-16 21:13:00,68.0,54.0,30.18,South,180,3.5,10.7,61,0.00,,,0.00,Rainwise IP-100,2013-03-17 01:13:00,
2013-03-16 21:18:00,68.0,53.5,30.18,ESE,112,6.5,10.3,60,0.00,,,0.00,Rainwise IP-100,2013-03-17 01:18:00,
2013-03-16 21:23:00,68.0,54.0,30.18,South,180,7.7,9.1,61,0.00,,,0.00,Rainwise IP-100,2013-03-17 01:23:00,
2013-03-16 21:28:00,68.0,54.0,30.18,South,180,3.0,11.0,61,0.00,,,0.00,Rainwise IP-100,2013-03-17 01:28:00,
2013-03-16 21:33:00,68.0,54.0,30.18,South,180,5.1,13.3,61,0.00,,,0.00,Rainwise IP-100,2013-03-17 01:33:00,
2013-03-16 21:39:00,68.0,54.0,30.18,ESE,112,4.2,11.9,61,0.00,,,0.00,Rainwise IP-100,2013-03-17 01:39:00,
2013-03-16 21:44:00,68.0,54.0,30.19,SSE,157,2.6,9.6,61,0.00,,,0.00,Rainwise IP-100,2013-03-17 01:44:00,
2013-03-16 21:49:00,68.0,54.0,30.18,SSE,157,2.3,11.0,61,0.00,,,0.00,Rainwise IP-100,2013-03-17 01:49:00,
2013-03-16 21:54:00,68.0,54.0,30.19,SE,135,4.4,12.8,61,0.00,,,0.00,Rainwise IP-100,2013-03-17 01:54:00,
2013-03-16 21:59:00,68.0,54.5,30.19,ESE,112,4.7,10.3,62,0.00,,,0.00,Rainwise IP-100,2013-03-17 01:59:00,
2013-03-16 22:04:00,68.0,54.5,30.19,SSE,157,4.9,10.7,63,0.00,,,0.00,Rainwise IP-100,2013-03-17 02:04:00,
2013-03-16 22:09:00,68.0,54.5,30.20,South,180,2.3,9.6,63,0.00,,,0.00,Rainwise IP-100,2013-03-17 02:09:00,
2013-03-16 22:15:00,68.0,54.5,30.20,SE,135,7.0,11.0,62,0.00,,,0.00,Rainwise IP-100,2013-03-17 02:15:00,
2013-03-16 22:20:00,68.0,54.5,30.20,SSE,157,2.6,10.3,62,0.00,,,0.00,Rainwise IP-100,2013-03-17 02:20:00,
2013-03-16 22:25:00,68.1,54.5,30.19,ESE,112,8.2,12.4,62,0.00,,,0.00,Rainwise IP-100,2013-03-17 02:25:00,
2013-03-16 22:30:00,68.2,54.0,30.20,SSE,157,3.3,12.4,61,0.00,,,0.00,Rainwise IP-100,2013-03-17 02:30:00,
2013-03-16 22:35:00,68.3,54.5,30.20,ESE,112,9.1,10.5,61,0.00,,,0.00,Rainwise IP-100,2013-03-17 02:35:00,
2013-03-16 22:40:00,68.4,54.0,30.20,SSE,157,5.4,11.9,60,0.00,,,0.00,Rainwise IP-100,2013-03-17 02:40:00,
2013-03-16 22:45:00,68.4,54.0,30.20,SE,135,4.0,12.4,60,0.00,,,0.00,Rainwise IP-100,2013-03-17 02:45:00,
2013-03-16 22:51:00,68.4,54.0,30.19,South,180,2.6,9.1,60,0.00,,,0.00,Rainwise IP-100,2013-03-17 02:51:00,
2013-03-16 22:56:00,68.3,54.5,30.19,SSE,157,5.1,10.7,61,0.00,,,0.00,Rainwise IP-100,2013-03-17 02:56:00,
2013-03-16 23:01:00,68.3,54.0,30.19,SSW,202,2.1,8.2,60,0.00,,,0.00,Rainwise IP-100,2013-03-17 03:01:00,
2013-03-16 23:06:00,68.3,53.5,30.20,SSE,157,2.8,12.8,59,0.00,,,0.00,Rainwise IP-100,2013-03-17 03:06:00,
2013-03-16 23:11:00,68.3,54.5,30.20,SSW,202,7.7,10.5,61,0.00,,,0.00,Rainwise IP-100,2013-03-17 03:11:00,
2013-03-16 23:16:00,68.2,54.0,30.20,South,180,5.4,10.3,61,0.00,,,0.00,Rainwise IP-100,2013-03-17 03:16:00,
2013-03-16 23:21:00,68.2,54.5,30.20,SE,135,6.1,10.0,62,0.00,,,0.00,Rainwise IP-100,2013-03-17 03:21:00,
2013-03-16 23:27:00,68.3,55.0,30.20,South,180,4.4,11.2,63,0.00,,,0.00,Rainwise IP-100,2013-03-17 03:27:00,
2013-03-16 23:32:00,68.2,54.5,30.19,SSW,202,3.7,13.5,63,0.00,,,0.00,Rainwise IP-100,2013-03-17 03:32:00,
2013-03-16 23:37:00,68.1,54.5,30.20,SSW,202,6.3,10.5,63,0.00,,,0.00,Rainwise IP-100,2013-03-17 03:37:00,
2013-03-16 23:42:00,68.2,54.5,30.19,SSE,157,6.8,11.2,63,0.00,,,0.00,Rainwise IP-100,2013-03-17 03:42:00,
2013-03-16 23:47:00,68.1,54.5,30.19,South,180,5.1,10.7,63,0.00,,,0.00,Rainwise IP-100,2013-03-17 03:47:00,
2013-03-16 23:52:00,68.1,55.0,30.19,SSE,157,4.7,10.5,64,0.00,,,0.00,Rainwise IP-100,2013-03-17 03:52:00,
2013-03-16 23:57:00,68.1,56.0,30.19,SSW,202,4.0,11.7,65,0.00,,,0.00,Rainwise IP-100,2013-03-17 03:57:00,